User: anonymous   Login
Location: Clinton NY
(43.0598°N, 75.3602°W)
Time: 16:57:36
(UTC-04:00)
Language:

ISS - Orbit

View from above orbital plane
View from above orbital plane
View from above satellite
View from above satellite

Ground track
Ground track

The orbit data is extracted from the following two-line orbital elements,

1 25544U 98067A   17115.56021065  .00016717  00000-0  10270-3 0  9018
2 25544  51.6374 300.6175 0006719  91.2445 268.9477 15.54189435 13561
Epoch (UTC): 25 April 2017 13:26:42
Eccentricity: 0.0006719
inclination: 51.6374°
perigee height: 400 km
apogee height: 409 km
right ascension of ascending node: 300.6175°
argument of perigee: 91.2445°
revolutions per day: 15.54189435
mean anomaly at epoch: 268.9477°
orbit number at epoch: 1356

The dashed part of the orbit path shows where the satellite is in the earth's shadow,  

DLR